Regional Weather Roundup
Issued by NWS

Home | Current Version | Previous Version | Graphics & Text | Print | Product List | Glossary On
Versions: 1 2 3 4 5 6 7 8 9 10 11 12 13 14 15 16 17 18 19 20 21 22 23 24 25 26 27 28 29 30 31 32 33 34 35 36 37 38 39 40 41 42 43 44 45 46 47 48 49 50
000
ASUS43 KMPX 010601
RWRMN
WEATHER ROUNDUP FOR MINNESOTA
NATIONAL WEATHER SERVICE TWIN CITIES/CHANHASSEN MN
100 AM CDT WED OCT 01 2014


NOTE: "FAIR" INDICATES FEW OR NO CLOUDS BELOW 12,000 FEET WITH NO
SIGNIFICANT WEATHER AND/OR OBSTRUCTIONS TO VISIBILITY. N/A MEANS
CURRENT SKY AND/OR WEATHER CONDITIONS ARE NOT AVAILABLE.

MNZ060>063-068>070-010700-
   Twin Cities Metro

CITY           SKY/WX    TMP DP  RH WIND       PRES   REMARKS
TWIN CITIES    MOCLDY    52  45  77 SE15      29.88S
6HR MIN TEMP:  52; 6HR MAX TEMP:  55;

ST PAUL        CLOUDY    52  46  80 SE12      29.89F
CRYSTAL        MOCLDY    54  46  74 SE14      29.85F
BLAINE         MOCLDY    54  48  82 SE12      29.87F
LAKEVILLE      MOCLDY    52  46  82 SE8       29.88S
EDEN PRAIRIE   MOCLDY    53  47  79 SE13      29.85F
6HR MIN TEMP:  53; 6HR MAX TEMP:  56; 6HR PCP: TRACE;

SOUTH ST PAUL  CLOUDY    52  45  76 SE9       29.88F
LAKE ELMO      CLOUDY    50  46  87 SE9G16    29.91F
$$
MNZ001>005-007-008-013>017-022>024-027-028-010700-
   Northwest Minnesota

CITY           SKY/WX    TMP DP  RH WIND       PRES   REMARKS
BEMIDJI        MOCLDY    49  45  83 SE14G21   29.75S
HALLOCK        CLOUDY    57  48  72 SE18G25   29.55F
ROSEAU         CLOUDY    54  46  76 SE15G21   29.66S
WARROAD        CLOUDY    52  46  82 SE14      29.68F
THIEF RVR FALL CLOUDY    57  46  67 SE21G31   29.62F
CROOKSTON      CLOUDY    61  52  72 S29G36    29.59S
FOSSTON        PTCLDY    54  46  76 SE18      29.66F
DETROIT LAKES  CLOUDY    54  48  82 SE18G25   29.68F
PARK RAPIDS    CLOUDY    52  45  77 SE17      29.74F
MAHNOMEN       CLOUDY    55  47  76 SE18G28   29.66S
$$
MNZ006-009>011-018-025>026-010700-
   North Central Minnesota

CITY           SKY/WX    TMP DP  RH WIND       PRES   REMARKS
BAUDETTE       CLOUDY    49  42  77 SE14G23   29.73F
FLAG ISLAND    CLOUDY    54  45  71 SE21      29.71S
INTL FALLS     MOCLDY    45  40  82 SE12G17   29.83F
6HR MIN TEMP:  45; 6HR MAX TEMP:  51;

WASKISH        CLOUDY    52  45  76 SE14G24   29.73F
BIG FORK       CLOUDY    46  43  87 SE9G16    29.82F
LONGVILLE      MOCLDY    46  45  93 SE7       29.79S
GRAND RAPIDS   CLOUDY    46  41  81 SE12G18   29.83F
CRANE LAKE     MOCLDY    43  39  87 CALM      29.90F
ORR            CLOUDY    43  37  81 SE7       29.84F
COOK           CLOUDY    45  43  93 SE5       29.88F
WALKER         MOCLDY    50  45  81 SE8G17    29.77S
$$
MNZ012-019>021-037-010700-
   Northeast Minnesota

CITY           SKY/WX    TMP DP  RH WIND       PRES   REMARKS
DULUTH         CLOUDY    48  45  89 E14       29.89F
6HR MIN TEMP:  45; 6HR MAX TEMP:  48;

ELY            CLOUDY    43  39  87 S3        29.92R
HIBBING        CLOUDY    47  43  86 SE8       29.89F
EVELETH        CLOUDY    45  43  93 E6        29.89F
DULUTH HARBOR  CLOUDY    52  48  87 E12       29.92F
TWO HARBORS    MOCLDY    46  43  87 E6        29.93S
SILVER BAY     CLOUDY    45  45 100 NE8       29.94S
GRAND MARAIS     N/A     47  42  83 NE8       29.99F
G MARAIS ARPRT FOG       39  37  93 E9        29.98F VSB 1
$$
MNZ029>031-032-039>041-046>048-054>057-064-010700-
   West Central Minnesota

CITY           SKY/WX    TMP DP  RH WIND       PRES   REMARKS
FERGUS FALLS   CLOUDY    61  54  77 S21G33    29.68S
WHEATON        CLEAR     57  55  94 SE15      29.67S
MORRIS         CLEAR     59  55  88 S15       29.71R
ALEXANDRIA     PTCLDY    52  49  89 SE12      29.75F
ELBOW LAKE     CLOUDY    58  55  87 SE20G32   29.69S
WADENA         CLEAR     48  45  87 SE15      29.74F
GLENWOOD       PTCLDY    55  54  94 SE16      29.76S
APPLETON       MOCLDY    61  55  82 S12G17    29.72R
BENSON         CLOUDY    57  55  94 S13G18    29.74S
ORTONVILLE     MOCLDY    61  55  82 SE8       29.69S
MADISON        PTCLDY    64  59  82 S12       29.71S
WILLMAR        FAIR      57  54  88 SE13      29.78S
$$
MNZ033>034-036-042>043-049>051-058-059-010700-
   Central Minnesota

CITY           SKY/WX    TMP DP  RH WIND       PRES   REMARKS
ST CLOUD       CLOUDY    54  47  77 SE12      29.82S
6HR MIN TEMP:  53; 6HR MAX TEMP:  56; 6HR PCP:  0.01;

SAUK CENTRE    FAIR      52  48  86 SE12      29.78F
PAYNESVILLE    PTCLDY    52  49  89 E12G18    29.79F
AITKIN         MOCLDY    50  45  81 SE6       29.82F
PINE RIVER     PTCLDY    52  46  82 SE10G17   29.83S
BRAINERD       MOCLDY    49  44  83 SE9       29.81F
STAPLES        CLEAR     50  45  81 SE9G21    29.77S
LONG PRAIRIE   FAIR      50  46  87 SE12      29.78S
LITTLE FALLS   PTCLDY    50  43  76 SE12      29.81S
LITCHFIELD     PTCLDY    55  54  94 SE9       29.81F
BUFFALO        MOCLDY    54  47  77 E9        29.84F
MAPLE LAKE     MOCLDY    55  50  83 SE7       29.83F
$$
MNZ037-044-045-052-053-010700-
   East Central Minnesota

CITY           SKY/WX    TMP DP  RH WIND       PRES   REMARKS
PRINCETON      MOCLDY    52  46  82 SE7       29.86S
MORA           MOCLDY    48  43  81 SE6       29.89R
CAMBRIDGE      MOCLDY    54  43  66 SE8G17    29.85F
RUSH CITY      CLOUDY    50  44  79 SE7       29.89R
MOOSE LAKE     CLOUDY    45  43  93 NE5       29.86F
HINCKLEY       MOCLDY    50  45  81 SE6       29.89R
CLOQUET        CLOUDY    46  45  93 SE8       29.89F
MCGREGOR       CLOUDY    46  43  87 SE8       29.86F
$$
MNZ071>073-080-081-089-090-097-098-010700-
   Southwest Minnesota

CITY           SKY/WX    TMP DP  RH WIND       PRES   REMARKS
MONTEVIDEO     CLOUDY    59  57  94 S9        29.75S
GRANITE FALLS  CLOUDY    58  56  95 SE9       29.77S
CANBY          CLOUDY    63  58  84 S13G22    29.73S
MARSHALL       CLOUDY    63  55  77 S13G23    29.75S
REDWOOD FALLS  CLEAR     58  55  90 SE14      29.77F
OLIVIA         CLEAR     57  54  88 SE12      29.77S
PIPESTONE      CLOUDY    61  57  88 S12       29.76F FOG
WINDOM         CLOUDY    59  57  94 SE10G18   29.79F
WORTHINGTON    CLOUDY    59  57  94 S15G21    29.79S
JACKSON        CLOUDY    59  55  88 SE10      29.80F
TRACY          CLOUDY    60  58  92 S13G24    29.76F
SLAYTON        CLOUDY    59  58  97 S15       29.78F FOG
$$
MNZ065>067-074>077-082>085-091>093-010700-
   South Central Minnesota

CITY           SKY/WX    TMP DP  RH WIND       PRES   REMARKS
MANKATO        CLOUDY    55  45  67 SE14      29.83F
NEW ULM        PTCLDY    55  54  94 SE12G17   29.80F
ST JAMES       PTCLDY    57  55  94 SE9       29.81F
FAIRMONT       MOCLDY    57  52  82 SE12      29.81F
GLENCOE        MOCLDY    56  48  76 SE9       29.83S
FARIBAULT      MOCLDY    54  46  76 SE9G16    29.88S
OWATONNA       MOCLDY    52  46  82 SE13G20   29.88R
WASECA         MOCLDY    52  43  71 SE13      29.88S
ALBERT LEA     CLOUDY    54  46  76 SE14G20   29.87F
$$
MNZ078>079-086>088-094>096-010700-
   Southeast Minnesota

CITY           SKY/WX    TMP DP  RH WIND       PRES   REMARKS
ROCHESTER      MOCLDY    48  44  86 SE13      29.93R
6HR MIN TEMP:  48; 6HR MAX TEMP:  52;

RED WING       CLOUDY    52  45  76 SE14      29.91S
STANTON        CLOUDY    53  46  76 SE9       29.88S
DODGE CENTER   CLOUDY    50  45  81 SE15      29.90S
WINONA         CLOUDY    48  45  87 SE6       29.97R
AUSTIN         LGT RAIN  52  46  82 SE12      29.89F
PRESTON        MOCLDY    47  43  86 SE7       29.94S
$$
ABBREVIATIONS USED IN REMARKS
   TC - TEMPERATURES IN CELSIUS
  WCI - WIND CHILL INDEX
   HX - HEAT INDEX
  VSB - VISIBILITY
$$



USA.gov is the U.S. government's official web portal to all federal, state and local government web resources and services.